TimeEDT,TemperatureF,Dew PointF,Humidity,Sea Level PressureIn,VisibilityMPH,Wind Direction,Wind SpeedMPH,Gust SpeedMPH,PrecipitationIn,Events,Conditions,WindDirDegrees,DateUTC
12:54 AM,55.9,48.0,75,30.04,10.0,Calm,Calm,-,N/A,,Scattered Clouds,0,2013-06-19 04:54:00
1:54 AM,57.9,50.0,75,30.05,10.0,NNE,8.1,-,N/A,,Scattered Clouds,20,2013-06-19 05:54:00
2:54 AM,57.0,48.0,72,30.07,10.0,NE,6.9,-,N/A,,Partly Cloudy,40,2013-06-19 06:54:00
3:54 AM,55.9,46.9,72,30.08,10.0,NE,9.2,-,N/A,,Partly Cloudy,40,2013-06-19 07:54:00
4:54 AM,55.0,46.0,72,30.10,10.0,NE,10.4,-,N/A,,Partly Cloudy,50,2013-06-19 08:54:00
5:54 AM,54.0,44.1,69,30.11,10.0,ENE,5.8,-,N/A,,Partly Cloudy,60,2013-06-19 09:54:00
6:54 AM,55.9,45.0,67,30.13,10.0,ENE,4.6,-,N/A,,Partly Cloudy,60,2013-06-19 10:54:00
7:54 AM,59.0,43.0,55,30.15,10.0,ENE,6.9,-,N/A,,Partly Cloudy,60,2013-06-19 11:54:00
8:54 AM,61.0,45.0,56,30.17,10.0,NE,9.2,-,N/A,,Clear,50,2013-06-19 12:54:00
9:54 AM,62.1,48.0,60,30.18,10.0,NNE,6.9,-,N/A,,Clear,30,2013-06-19 13:54:00
10:54 AM,63.0,46.9,56,30.18,10.0,North,5.8,-,N/A,,Partly Cloudy,10,2013-06-19 14:54:00
11:54 AM,63.0,45.0,52,30.19,10.0,NE,8.1,-,N/A,,Partly Cloudy,40,2013-06-19 15:54:00
12:54 PM,64.0,43.0,46,30.19,10.0,NNE,10.4,-,N/A,,Partly Cloudy,30,2013-06-19 16:54:00
1:54 PM,64.9,39.9,40,30.19,10.0,NE,9.2,-,N/A,,Partly Cloudy,40,2013-06-19 17:54:00
2:54 PM,64.9,39.9,40,30.19,10.0,NE,9.2,-,N/A,,Partly Cloudy,40,2013-06-19 18:54:00
3:54 PM,64.9,39.0,39,30.18,10.0,Variable,4.6,17.3,N/A,,Partly Cloudy,0,2013-06-19 19:54:00
4:54 PM,66.9,39.0,36,30.17,10.0,NW,8.1,-,N/A,,Partly Cloudy,310,2013-06-19 20:54:00
5:54 PM,66.0,37.9,36,30.17,10.0,NNE,4.6,-,N/A,,Partly Cloudy,30,2013-06-19 21:54:00
6:54 PM,66.0,37.0,34,30.16,10.0,NNE,6.9,-,N/A,,Clear,20,2013-06-19 22:54:00
7:54 PM,64.0,37.0,37,30.18,10.0,NNE,4.6,-,N/A,,Clear,30,2013-06-19 23:54:00
8:54 PM,61.0,39.9,46,30.17,10.0,NE,4.6,-,N/A,,Clear,50,2013-06-20 00:54:00
9:54 PM,55.0,44.1,67,30.19,10.0,Calm,Calm,-,N/A,,Partly Cloudy,0,2013-06-20 01:54:00
10:54 PM,53.1,45.0,74,30.20,10.0,Calm,Calm,-,N/A,,Clear,0,2013-06-20 02:54:00
11:54 PM,51.1,45.0,80,30.22,10.0,Calm,Calm,-,N/A,,Clear,0,2013-06-20 03:54:00